Weather History for New Orleans NAS, LA

Change the Weather History Date:

Saturday, November 2, 2013

  Actual Average Record
Temperature  
Mean Temperature 63 °F -  
Max Temperature 75 °F 73 °F 82 °F (2000)
Min Temperature 53 °F 55 °F 42 °F (2008)
Degree Days  
Heating Degree Days 2    
Growing Degree Days 13 (Base 50)    
Moisture  
Dew Point 49 °F    
Average Humidity 64    
Maximum Humidity 94    
Minimum Humidity 35    
Precipitation  
Precipitation 0.00 in - - ()
Sea Level Pressure  
Sea Level Pressure 30.03 in    
Wind  
Wind Speed 3 mph (North)    
Max Wind Speed 13 mph    
Max Gust Speed 21 mph    
Visibility 8 miles    
Events      
Averages and records for this station are not official NWS values.
T = Trace of Precipitation, MM = Missing Value Source: NWS Daily Summary

Daily Weather History Graph

Daily Weather History Graph

Search for Another Location

Airport:

Trip Planner

Search our weather history database for the weather conditions in past years. The results will help you decide how hot, cold, wet, or windy it might be!

Date:

Astronomy

Nov. 02, 2013 Rise Set
Actual Time 7:14 AM CDT 6:12 PM CDT
Civil Twilight 6:50 AM CDT 6:36 PM CDT
Nautical Twilight 6:21 AM CDT 7:05 PM CDT
Astronomical Twilight 5:53 AM CDT 7:33 PM CDT
Moon 6:15 AM CDT (11/2) 5:42 PM CDT (11/2)
Length of Visible Light 11h 46m
Length of Day
10h 57m
Waning Crescent, 1% of the Moon is Illuminated
Nov 2
Waning Crescent
Nov 3
New
Nov 9
First Quarter
Nov 17
Full
Nov 25
Last Quarter

Hourly Weather History & Observations

Time (CDT) Temp. Dew Point Humidity Pressure Visibility Wind Dir Wind Speed Gust Speed Precip Events Conditions
1:03 AM 55.4 °F 51.8 °F 88% 29.95 in 3.0 mi Calm Calm - N/A   Clear
1:55 AM 54.0 °F 52.0 °F 93% 29.94 in 3.0 mi Calm Calm - N/A   Clear
1:58 AM 53.6 °F 51.8 °F 94% 29.95 in 1.8 mi Calm Calm - N/A   Clear
2:52 AM 53.6 °F 51.8 °F 94% 29.95 in 2.0 mi SSW 3.5 mph - N/A   Clear
2:55 AM 53.1 °F 51.1 °F 93% 29.95 in 4.0 mi Calm Calm - N/A   Clear
3:55 AM 54.0 °F 51.1 °F 90% 29.95 in 8.0 mi Calm Calm - N/A   Scattered Clouds
4:55 AM 53.1 °F 51.1 °F 93% 29.96 in 7.0 mi Calm Calm - N/A   Clear
5:55 AM 57.0 °F 55.0 °F 93% 29.98 in 10.0 mi Calm Calm - N/A   Mostly Cloudy
6:55 AM 59.0 °F 57.0 °F 93% 29.99 in 10.0 mi Calm Calm - N/A   Mostly Cloudy
7:55 AM 59.0 °F 55.9 °F 90% 30.01 in 10.0 mi Calm Calm - N/A   Mostly Cloudy
8:55 AM 66.9 °F 59.0 °F 76% 30.03 in 10.0 mi Calm Calm - N/A   Scattered Clouds
9:55 AM 70.0 °F 53.1 °F 55% 30.05 in 10.0 mi NNW 4.6 mph - N/A   Partly Cloudy
10:55 AM 73.0 °F 50.0 °F 44% 30.06 in 10.0 mi North 6.9 mph 16.1 mph N/A   Partly Cloudy
11:55 AM 73.9 °F 51.1 °F 45% 30.06 in 10.0 mi North 9.2 mph - N/A   Partly Cloudy
12:55 PM 73.9 °F 50.0 °F 43% 30.05 in 10.0 mi NNW 9.2 mph - N/A   Partly Cloudy
1:55 PM 73.9 °F 48.0 °F 40% 30.02 in 10.0 mi North 11.5 mph 18.4 mph N/A   Partly Cloudy
2:55 PM 73.9 °F 48.9 °F 41% 30.01 in 10.0 mi North 12.7 mph 20.7 mph N/A   Partly Cloudy
3:55 PM 73.0 °F 45.0 °F 37% 30.02 in 10.0 mi North 11.5 mph 19.6 mph N/A   Partly Cloudy
4:55 PM 72.0 °F 46.9 °F 41% 30.03 in 10.0 mi Variable 4.6 mph - N/A   Partly Cloudy
5:55 PM 70.0 °F 41.0 °F 35% 30.05 in 10.0 mi Variable 6.9 mph - N/A   Partly Cloudy
6:55 PM 66.9 °F 41.0 °F 39% 30.08 in 10.0 mi Variable 4.6 mph - N/A   Clear
7:55 PM 64.9 °F 42.1 °F 43% 30.11 in 10.0 mi North 4.6 mph - N/A   Clear
8:55 PM 63.0 °F 44.1 °F 50% 30.14 in 10.0 mi North 3.5 mph - N/A   Clear
9:55 PM 62.1 °F 45.0 °F 53% 30.15 in 10.0 mi NNE 5.8 mph - N/A   Clear
10:55 PM 61.0 °F 44.1 °F 54% 30.17 in 10.0 mi NNE 6.9 mph - N/A   Clear
11:55 PM 59.0 °F 44.1 °F 58% 30.17 in 10.0 mi NNE 8.1 mph 17.3 mph N/A   Clear